Location: Black Skies Observatory
(44.7549°N, 79.7179°W)
Time: 15:26:15
(UTC-04:00)

ISS - Visible Passes

Search period start: 31 October 2020 00:00
Search period end: 09 November 2020 23:00
Orbit: 417 x 420 km, 51.6° (Epoch: 31 October)

Date Brightness Start Highest point End Pass type
(mag) Time Alt. Az. Time Alt. Az. Time Alt. Az.
31 Oct -1.5 05:36:42 21° NE 05:36:42 21° NE 05:38:09 10° NE visible
31 Oct -2.1 07:09:40 10° NW 07:12:28 24° N 07:15:18 10° ENE visible
01 Nov -2.2 05:23:51 23° NNW 05:24:30 24° N 05:27:20 10° NE visible
02 Nov -1.3 04:38:02 19° NNE 04:38:02 19° NNE 04:39:26 10° NE visible
02 Nov -2.4 06:10:58 10° NW 06:14:00 30° NNE 06:17:02 10° ENE visible
03 Nov -2.2 05:25:09 23° NNW 05:26:03 26° N 05:28:57 10° ENE visible
04 Nov -1.4 04:39:20 20° NE 04:39:20 20° NE 04:40:56 10° ENE visible
04 Nov -3.1 06:12:17 11° NW 06:15:24 49° NNE 06:18:41 10° E visible
05 Nov -2.7 05:26:29 29° NNW 05:27:31 37° NNE 05:30:40 10° E visible
06 Nov -1.6 04:40:43 24° NE 04:40:43 24° NE 04:42:36 10° ENE visible
06 Nov -3.8 06:13:40 13° WNW 06:16:37 76° SSW 06:19:58 10° SE visible
07 Nov -3.7 05:27:57 45° NW 05:28:49 70° NNE 05:32:09 10° ESE visible
08 Nov -1.8 04:42:18 29° E 04:42:18 29° E 04:44:13 10° E visible
08 Nov -2.6 06:15:15 14° W 06:17:37 29° SW 06:20:35 10° SSE visible
09 Nov -3.5 05:29:40 46° SW 05:29:54 47° SW 05:33:09 10° SE visible
